Location: Berg
(47.2344°N, 9.5296°E)
Time: 15:31:34
(UTC+00:00)

Cosmos 44 - Pass Details

Date: 11 May 2021
Orbit: 571 x 791 km, 65.1° (Epoch: 11 June)

Event Time Altitude Azimuth Distance (km) Brightness Sun altitude
Rises 20:01:12 0° 325° (NW) 3,295 8.7 -11.1°
Reaches altitude 10° 20:04:10 10° 339° (NNW) 2,365 7.1 -11.5°
Maximum altitude 20:08:27 23° 31° (NNE) 1,629 5.3 -12.0°
Drops below altitude 10° 20:12:40 10° 83° (E) 2,319 5.6 -12.5°
Enters shadow 20:13:36 - 89° (E) 2,592 5.8 -12.6°
